Regional Weather Roundup
Issued by NWS

Home | Current Version | Previous Version | Graphics & Text | Print | Product List | Glossary On
Versions: 1 2 3 4 5 6 7 8 9 10 11 12 13 14 15 16 17 18 19 20 21 22 23 24 25 26 27 28 29 30 31 32 33 34 35 36 37 38 39 40 41 42 43 44 45 46 47 48 49 50
000
ASUS43 KDTX 270501
RWRMI
MICHIGAN HOURLY REGIONAL WEATHER ROUNDUP
NATIONAL WEATHER SERVICE DETROIT/PONTIAC MI
100 AM EDT THU APR 27 2017

NOTE: "FAIR" INDICATES FEW OR NO CLOUDS BELOW 12,000 FEET WITH NO
SIGNIFICANT WEATHER AND/OR OBSTRUCTION TO VISIBILITY.

MIZ047>049-052>055-059>063-066>070-074>076-081>083-270600-
SOUTHEAST LOWER MICHIGAN

CITY           SKY/WX    TMP DP  RH WIND       PRES   REMARKS
ADRIAN         CLOUDY    67  57  70 S12       29.53S
ALMA           CLOUDY    62  58  84 S7        29.48R
ANN ARBOR      CLOUDY    65  61  87 E5        29.53S
BAD AXE        LGT RAIN  63  56  79 S17G32    29.56R
CARO           LGT RAIN  64  59  84 E13G21    29.45F
DETROIT CITY   CLOUDY    63  52  67 E7        29.55F
DETROIT        CLOUDY    67  54  63 E6        29.54F
FLINT          CLOUDY    63  60  90 SE12      29.51R
GROSSE ILE     PTCLDY    65  52  61 S15G22    29.53F
HILLSDALE      MOCLDY    59  55  88 SE6       29.52R
HOWELL         CLOUDY    62  59  90 SE6       29.51S

CITY           SKY/WX    TMP DP  RH WIND       PRES   REMARKS
JACKSON        CLOUDY    63  59  87 SE7       29.51R
LAMBERTVILLE   MOCLDY    71  53  52 S6        29.53S
LANSING        CLOUDY    67  57  70 S6        29.49R
LAPEER         FAIR      61  58  90 SE3       29.53F
MASON          CLOUDY    64  60  87 SE6       29.50S
MONROE         CLOUDY    70  52  53 S15       29.53S
MT. CLEMENS    CLOUDY    56  54  91 E7        29.56F
PONTIAC        CLOUDY    62  59  90 E8        29.53S
PORT HOPE        N/A     66  54  65 S12G22    29.55R
PORT HURON     CLOUDY    61  50  67 W8        29.59S
TRI CITIES     CLOUDY    67  58  72 E5        29.47F
MIDLAND        MOCLDY    66  57  71 CALM      29.46F
TROY           CLOUDY    64  50  61 E5        29.56F
SAGINAW HB     CLOUDY    66  54  63 S8        29.46F
$$
MIZ043>046-050>051-056>058-064>065-071>073-077>080-270600-
SOUTHWEST LOWER MICHIGAN

CITY           SKY/WX    TMP DP  RH WIND       PRES   REMARKS
BATTLE CREEK   CLOUDY    67  58  72 SE12      29.48S
BENTON HARBOR  CLOUDY    59  56  89 E3        29.45F
BIG RAPIDS     PTCLDY    59  52  78 CALM      29.46S
COLDWATER      CLOUDY    64  58  82 SE8       29.49S
FREMONT        CLOUDY    61  55  81 CALM      29.46R
HOLLAND        LGT RAIN  60  57  89 CALM      29.46S FOG
GRAND RAPIDS   CLOUDY    64  57  78 E8        29.44F
IONIA          CLOUDY    64  56  75 E7        29.46F
KALAMAZOO      CLOUDY    68  56  65 SW9G24    29.48R
LUDINGTON      CLOUDY    59  55  84 CALM      29.43F
MARSHALL       PTCLDY    66  57  74 SE7       29.49R
MOUNT PLEASANT CLOUDY    61  55  78 CALM      29.47S
MUSKEGON       RAIN      61  56  83 SW10      29.49R
SOUTH HAVEN    CLOUDY    58  56  93 CALM      29.47F
$$
MIZ016>042-270600-
NORTHERN LOWER MICHIGAN

CITY           SKY/WX    TMP DP  RH WIND       PRES   REMARKS
ALPENA         CLOUDY    60  55  83 E3        29.49F
BEAVER ISLAND  CLOUDY    50  49  95 E7        29.46S
BELLAIRE       CLOUDY    57  54  88 CALM      29.45S
CADILLAC       CLOUDY    60  54  82 E3        29.46F
CHARLEVOIX     CLOUDY    60  55  84 SE6       29.48S
FRANKFORT      CLOUDY    60  55  82 CALM      29.44S
GAYLORD        CLOUDY    63  55  75 NE3       29.49F
GRAYLING       CLOUDY    59  55  89 CALM      29.49S
HARBOR SPRINGS CLOUDY    56  54  92 E9        29.46F
HOUGHTON LAKE  CLOUDY    61  54  77 E5        29.48F
MANISTEE       CLOUDY    62  56  80 CALM      29.43F
OSCODA         PTCLDY    66  54  66 SE9       29.50R
PELLSTON       CLOUDY    54  51  90 CALM      29.47F
ROGERS CITY    CLOUDY    49  46  88 CALM      29.51S
TRAVERSE CITY  CLOUDY    64  54  69 CALM      29.42F
$$
MIZ007>008-015-270600-
EASTERN UPPER MICHIGAN

CITY           SKY/WX    TMP DP  RH WIND       PRES   REMARKS
KINROSS        CLOUDY    50  48  93 E10       29.48F
MACKINAC ISLAN CLOUDY    48  48 100 E12G21    29.46F
NEWBERRY       FOG       52  51  97 E5        29.44F VSB 3/4
S. S. MARIE    CLOUDY    53  49  86 E7        29.48F
MUNISING         N/A     37  36  96 N7        29.48F WCI  32
$$
MIZ004>006-011>014-085-270600-
CENTRAL UPPER MICHIGAN

CITY           SKY/WX    TMP DP  RH WIND       PRES   REMARKS
MANISTIQUE     FOG       47  46  97 CALM      29.44S VSB 1/4
ESCANABA       CLOUDY    51  49  92 N8        29.43S
MENOMINEE      CLOUDY    50  47  89 N12       29.43S
SAWYER-GWINN   DRIZZLE   37  37  99 N7        29.47S WCI  32
$$
MIZ001>003-009>011-084-270600-
WESTERN UPPER MICHIGAN

CITY           SKY/WX    TMP DP  RH WIND       PRES   REMARKS
IRON MOUNTAIN  CLOUDY    39  34  82 NW10      29.45R WCI  32
HOUGHTON       LGT SNOW  31  27  85 N14       29.49F FOG     WCI  21
IRONWOOD       LGT SNOW  28  26  92 N7        29.56S FOG     WCI  21
$$

ABBREVIATIONS USED IN REMARKS
   TC - TEMPERATURE IN CELSIUS
  WCI - WIND CHILL INDEX
   HX - HEAT INDEX
  VSB - VISIBILITY




USA.gov is the U.S. government's official web portal to all federal, state and local government web resources and services.